Location: Campillo
(40.8621°N, 4.2488°W)
Time: 16:53:29
(UTC+00:00)

Cosmos 1777 Rocket - Pass Details

Date: 28 September 2021
Orbit: 759 x 775 km, 74.0° (Epoch: 23 October)

Event Time Altitude Azimuth Distance (km) Brightness Sun altitude
Rises 19:44:34 0° 226° (SW) 3,226 7.7 -19.7°
Reaches altitude 10° 19:47:13 10° 238° (WSW) 2,301 7.0 -20.2°
Maximum altitude 19:51:45 30° 298° (WNW) 1,362 6.0 -21.0°
Drops below altitude 10° 19:56:18 10° 359° (N) 2,304 6.7 -21.9°
Sets 19:58:59 0° 10° (N) 3,232 7.3 -22.3°
